TimeEST,TemperatureF,Dew PointF,Humidity,Sea Level PressureIn,VisibilityMPH,Wind Direction,Wind SpeedMPH,Gust SpeedMPH,PrecipitationIn,Events,Conditions,WindDirDegrees,DateUTC
12:53 AM,51.1,48.0,89,30.10,10.0,Calm,Calm,-,N/A,,Clear,0,2012-11-24 05:53:00
1:53 AM,48.9,48.0,97,30.09,10.0,Calm,Calm,-,N/A,,Clear,0,2012-11-24 06:53:00
2:53 AM,50.0,48.0,93,30.07,10.0,Calm,Calm,-,N/A,,Clear,0,2012-11-24 07:53:00
3:53 AM,51.1,48.9,92,30.06,10.0,Calm,Calm,-,N/A,,Clear,0,2012-11-24 08:53:00
4:53 AM,51.1,48.9,92,30.06,10.0,Calm,Calm,-,N/A,,Scattered Clouds,0,2012-11-24 09:53:00
5:53 AM,50.0,48.0,93,30.07,10.0,Calm,Calm,-,N/A,,Clear,0,2012-11-24 10:53:00
6:53 AM,48.9,48.0,97,30.09,7.0,Calm,Calm,-,N/A,,Clear,0,2012-11-24 11:53:00
7:53 AM,53.1,53.1,100,30.10,7.0,Calm,Calm,-,N/A,,Clear,0,2012-11-24 12:53:00
8:53 AM,66.0,59.0,78,30.12,10.0,Calm,Calm,-,N/A,,Clear,0,2012-11-24 13:53:00
9:53 AM,70.0,54.0,57,30.12,10.0,NW,5.8,-,N/A,,Clear,320,2012-11-24 14:53:00
10:53 AM,71.1,55.9,59,30.11,10.0,West,5.8,-,N/A,,Clear,260,2012-11-24 15:53:00
11:53 AM,72.0,57.0,59,30.09,10.0,West,11.5,-,N/A,,Partly Cloudy,270,2012-11-24 16:53:00
12:53 PM,71.1,57.9,63,30.06,10.0,NW,13.8,20.7,N/A,,Clear,320,2012-11-24 17:53:00
1:53 PM,71.1,55.9,59,30.04,10.0,West,11.5,-,N/A,,Clear,280,2012-11-24 18:53:00
2:53 PM,70.0,55.9,61,30.03,10.0,NW,15.0,-,N/A,,Clear,310,2012-11-24 19:53:00
3:53 PM,66.9,57.0,70,30.04,10.0,NNW,11.5,-,N/A,,Clear,330,2012-11-24 20:53:00
4:53 PM,64.0,55.9,75,30.05,10.0,NW,11.5,-,N/A,,Clear,310,2012-11-24 21:53:00
5:53 PM,61.0,53.1,75,30.06,10.0,NNW,9.2,-,N/A,,Clear,330,2012-11-24 22:53:00
6:53 PM,59.0,51.1,75,30.06,10.0,NNW,5.8,-,N/A,,Clear,330,2012-11-24 23:53:00
7:53 PM,55.9,48.9,77,30.08,10.0,NNW,4.6,-,N/A,,Clear,340,2012-11-25 00:53:00
8:53 PM,55.0,48.0,77,30.09,10.0,Calm,Calm,-,N/A,,Clear,0,2012-11-25 01:53:00
9:53 PM,54.0,48.0,80,30.10,10.0,Calm,Calm,-,N/A,,Clear,0,2012-11-25 02:53:00
10:53 PM,48.9,46.9,93,30.11,10.0,NNE,3.5,-,N/A,,Clear,20,2012-11-25 03:53:00
11:53 PM,50.0,46.9,89,30.10,10.0,North,3.5,-,N/A,,Clear,350,2012-11-25 04:53:00